Regional Weather Roundup
Issued by NWS Charleston, SC

Current Version | Previous Version | Graphics & Text | Print | Product List | Glossary On
Versions: 1 2 3 4 5 6 7 8 9 10 11 12 13 14 15 16 17 18 19 20 21 22 23 24 25 26 27 28 29 30 31 32 33 34 35 36 37 38 39 40 41 42 43 44 45 46 47 48 49 50
000
ASUS42 KCHS 280910
RWRCHS

REGIONAL WEATHER ROUNDUP
NATIONAL WEATHER SERVICE CHARLESTON SC
500 AM EDT THU AUG 28 2014

NOTE: "FAIR" INDICATES FEW OR NO CLOUDS BELOW 12,000 FEET WITH NO
SIGNIFICANT WEATHER AND/OR OBSTRUCTIONS TO VISIBILITY.

NOT ALL STATIONS ARE QUALITY CONTROLLED BY THE NATIONAL
WEATHER SERVICE. USE DATA WITH CAUTION...ESPECIALLY
DEWPOINT OBSERVATIONS.

SCZ027-030-031-034>040-042>050-281000-
...SOUTH CAROLINA...

CITY           SKY/WX    TMP DP  RH WIND       PRES   REMARKS
N CHARLESTON   CLEAR     71  65  81 W6        30.00S
WATERFRONT PRK   N/A     75 N/A N/A W5          N/A
FORT JOHNSON   NOT AVBL
MOUNT PLEASANT FAIR      66  66 100 CALM      30.00S
JOHNS ISLAND   SUNNY     68  66  94 CALM      30.00S
PINOPOLIS        N/A     73  66  78 SW6       29.91F
MONCKS CORNER    N/A     66  66 100 CALM      30.00S
SUMMERVILLE    FAIR      63  63 100 CALM      30.01S
BEAUFORT MCAS  CLEAR     69  66  90 NW3       30.00S
BEAUFORT ARPT  FAIR      70  70 100 W3        30.00S
HILTON HEAD IS CLOUDY    70  70 100 W3        30.01S
GEORGETOWN     NOT AVBL
WALTERBORO     SUNNY     64 N/A N/A W3        30.01S
ORANGEBURG     CLEAR     63  59  87 CALM      30.01S
BARNWELL       FAIR      61  57  88 CALM      30.02S
AIKEN          FAIR      61  59  94 CALM      30.05S
MANNING        FAIR      63 N/A N/A CALM      30.00S
KINGSTREE      NOT AVBL
COLUMBIA       CLEAR     62  58  86 SW3       30.01R
SUMTER         CLEAR     65  60  83 SW2       29.99R
FLORENCE       CLEAR     63  59  87 W5        29.99S
MYRTLE BEACH   CLEAR     66  63  88 W6        29.99R
N MYRTLE BEACH NOT AVBL

$$

GAZ063-065-086>088-099>101-113>116-118-119-134-136>141-150-281000-
...GEORGIA...

CITY           SKY/WX    TMP DP  RH WIND       PRES   REMARKS
SAVANNAH ARPT  CLEAR     67  63  87 W3        30.01S
HUNTER AAF     CLEAR     66  65  98 W3        29.99S
FORT STEWART   CLEAR     64  63  94 CALM      30.00S FOG
STATESBORO     NOT AVBL
SYLVANIA       SUNNY     63  63 100 CALM      30.02S
CLAXTON        NOT AVBL
THOMSON        CLEAR     60  60 100 CALM      30.06S
AUGUSTA-BUSH   CLEAR     59  58  96 CALM      30.01S FOG
AUGUSTA-DANIEL CLEAR     72  58  61 SW3       30.02S
SWAINSBORO     FAIR      63  63 100 CALM      30.03S
VIDALIA          N/A     64  64 100 CALM      30.02S
ALMA           CLEAR     62  61  96 CALM      30.01S
WAYCROSS       CLEAR     68  67  97 CALM      30.01S
JESUP            N/A     63  61  94 CALM      30.01S
BRUNSWICK      CLEAR     68  64  88 CALM      30.01S
SAINT SIMONS   CLEAR     69  66  90 CALM      30.00S

$$

SCZ027-028-034-036>038-045-046-048>050-GAZ119-141-281000-
...LAKE AND SUPPLEMENTAL COASTAL OBSERVATIONS...

STATION/POSITION TIME  TEMP    WIND        PRES    WAVE   SWELL
                       AIR SEA DIR/SP/G            HT/PER HT/PER/DIR
                 (UTC) (F)     (DEG/KT/KT) (MB)    (FT/S) (FT/S/D)
UPR LAKE MARION  NOT AVBL
WINYAH BAY       0800   71     290/  4     1015.0S
LAKE MURRAY      0800   71     290/  3/  3 1015.6S
ACE BASIN NERRS  0800   71        CALM     1015.0S
FORT PULASKI     0900   74     310/  5/  6 1016.0F
SAPELO ISLAND    0800   70        CALM     1016.0S

$$

ANZ835-935-AMZ111-154-330-350-352-354-374-450-454-472-281000-
...C-MAN AND BUOY OBSERVATIONS...

STATION/POSITION TIME  TEMP    WIND        PRES    WAVE   SWELL
                       AIR SEA DIR/SP/G            HT/PER HT/PER/DIR
                 (UTC) (F)     (DEG/KT/KT) (MB)    (FT/S) (FT/S/D)
FOLLY BEACH CMAN 0800   75     290/  3/  4 1016.1R
BUOY 41004       0900   80 82  270/  8/ 10 1015.1R   5/10   5/10
BUOY 41008       0900   80 84  130/  2/  4 1015.7F   4/10   3/ 90/10
5E ST. MARYS GA  0900      83                N/A     3/11   2/100/11
FRYING PAN BUOY  NOT AVBL
BUOY 41025       0900   76     280/ 14/ 17 1012.7R   6/10   5/100/10
CAPE LOOKOUT NC  0800   75     290/  6/  7 1013.6R
BUOY 41002       0756   80 81  310/ 10/ 12 1015.0R   9/ 8   8/ 20/ 8
BUOY 41010       0900   82 83  160/  6/ 10 1015.2F   9/10   8/ 50/10
BUOY 41012       NOT AVBL
ST AUGUSTINE FL  0900   72     260/  5/  5 1016.1S
CAPERS NEARSHORE 0800   80     260/  8/  8   N/A
FRIPP NEARSHORE  NOT AVBL


$$


USA.gov is the U.S. government's official web portal to all federal, state and local government web resources and services.